Wind_Speed
9 8 12 8 3 11 7 8 7 8 11 10 8 10 6 20 24 21 19 12 7 6 7 11 7 10 12 13 11 11 15 16 15 23 23 22 16 12 8 6 8 7 9 12
10 12 10 1 4 2 10 6 7 3 9 11 7 7 8 12 22 20 15 14 7 5 6 8 8 10 15 16 11 13 15 12 12 23 13 15 11 15 6 4 3 6 10 13
11 7 0 5 7 9 9 8 5 15 11 5 6 12 13 20 21 20 16 11 6 6 9 9 6 8 11 12 11 13 12 8 4 12 21 18 16 20 6 2 4 8 11 14
8 4 4 7 10 11 13 6 7 5 5 6 12 9 19 24 12 24 16 14 8 5 12 12 7 8 12 10 8 10 6 3 3 9 13 14 11 7 3 2 6 9 9 11
10 6 12 10 7 5 7 8 7 9 7 11 10 6 6 8 9 16 14 10 7 11 12 11 9 8 12 9 7 6 3 2 6 6 7 7 7 4 4 6 9 11 11 12
15 13 12 8 11 8 10 10 9 11 8 5 11 6 8 3 6 6 13 7 10 10 13 12 10 11 10 10 7 6 2 2 7 6 5 5 4 4 8 10 13 14 10 10
16 15 11 9 11 12 14 11 4 3 1 7 4 8 9 5 8 7 11 6 7 12 11 14 10 10 11 10 8 6 3 3 7 8 5 5 4 6 9 10 15 15 11 10
9 10 15 14 17 15 11 13 6 4 3 5 7 5 6 8 7 12 8 3 7 8 7 8 9 10 10 9 9 8 6 6 9 9 4 3 2 4 6 10 13 13 8 9
8 11 10 15 19 15 16 14 13 17 10 4 6 3 7 19 21 17 13 7 6 7 8 8 8 10 9 10 12 9 8 8 8 8 5 5 3 2 5 10 13 13 8 7
18 19 11 20 18 19 12 14 7 5 1 2 2 4 4 17 17 5 12 15 10 10 9 11 11 11 9 15 15 12 9 9 11 10 7 7 2 1 5 9 11 12 8 5
21 17 13 8 13 15 11 15 13 11 6 6 2 2 8 16 17 16 16 13 10 11 13 11 17 12 12 17 15 12 14 13 17 11 8 8 3 1 4 7 9 12 10 6
25 17 24 15 10 11 13 12 15 13 6 4 4 5 15 13 18 21 16 15 12 10 21 15 17 15 15 18 13 15 20 10 20 13 10 10 5 1 4 6 8 10 9 7
27 27 25 14 12 9 4 7 15 14 10 7 2 5 13 14 15 14 13 15 18 16 19 19 17 16 17 13 1 21 13 11 17 15 15 11 5 1 3 5 6 9 9 8
28 21 28 21 12 6 6 5 10 9 8 13 14 7 12 17 16 14 13 12 13 17 18 14 16 19 15 10 3 8 13 23 16 17 15 9 5 1 4 6 6 8 9 10
14 19 15 16 14 8 10 11 9 15 16 18 20 17 13 15 16 3 5 8 10 9 14 14 15 19 15 13 3 2 4 9 14 13 10 7 6 3 4 6 8 8 8 10
5 7 12 14 16 13 14 18 16 16 17 11 12 13 11 19 10 9 13 17 15 13 13 20 13 16 15 14 7 4 6 8 9 11 10 9 6 3 4 6 8 9 9 10
2 5 11 12 16 17 16 21 16 8 10 11 10 7 22 16 11 6 7 18 28 21 18 20 10 9 13 15 11 8 7 11 9 9 10 7 5 3 2 5 8 8 8 9
5 7 6 4 13 2 23 12 11 8 5 9 4 19 18 11 8 8 7 20 22 19 13 9 7 8 11 15 14 15 13 7 3 4 7 8 4 6 5 5 8 12 10 9
8 9 9 7 9 13 12 9 6 1 6 12 8 14 7 4 6 12 9 7 15 17 9 8 15 11 10 13 17 21 19 8 5 7 10 1 6 3 8 7 10 13 11 9
11 11 11 7 6 7 3 4 3 5 2 9 12 3 2 11 12 17 9 4 10 5 1 8 11 12 14 16 18 19 24 10 11 20 9 6 9 10 8 10 12 15 14 13
19 22 20 16 12 12 18 12 16 11 10 8 8 13 15 5 8 21 12 3 5 7 11 12 15 17 16 19 19 18 20 14 6 13 13 8 12 13 12 12 16 16 16 14
18 18 26 26 24 18 25 22 18 26 25 12 7 2 9 13 12 14 17 14 11 11 11 14 17 21 20 19 18 18 17 16 16 14 14 14 17 17 15 16 19 18 19 18
12 16 21 23 18 15 11 8 11 7 7 5 5 10 13 14 14 14 15 14 9 8 7 11 14 17 17 17 18 17 17 18 19 20 20 17 16 16 16 16 17 18 19 18
6 8 16 22 17 15 10 6 9 10 9 9 11 12 6 9 10 13 15 13 12 12 12 11 12 11 9 7 10 13 14 17 17 17 17 16 16 16 15 16 18 18 18 15
8 12 7 10 12 14 10 10 12 9 10 10 12 14 12 10 14 16 14 11 11 14 15 13 12 11 10 10 9 9 9 11 13 14 15 16 16 14 15 17 17 15 13 11
8 10 11 7 7 10 13 14 13 13 12 17 16 14 13 15 15 13 11 12 13 11 12 12 11 9 8 8 9 9 10 12 13 14 15 16 14 12 13 15 13 10 9 9
Wind_Direction
186 209 205 175 241 305 294 305 323 25 203 200 215 292 218 221 231 240 248 268 290 351 322 313 312 314 328 321 297 316 314 319 334 339 304 183 195 186 179 212 246 273 299 292
187 215 185 161 2 227 261 297 313 323 201 232 299 333 255 257 239 240 252 260 264 285 302 321 305 340 324 314 313 316 319 343 4 18 104 149 172 161 166 217 274 287 289 291
201 138 283 248 262 282 287 292 309 312 297 280 330 299 309 318 247 230 248 252 257 298 319 336 323 332 324 311 301 313 327 8 34 69 87 109 104 163 154 204 280 300 300 308
250 183 303 243 271 281 274 234 320 359 337 330 340 324 323 322 262 220 219 221 255 282 301 308 339 318 311 311 297 296 315 32 115 98 104 118 113 101 92 354 339 323 314 312
218 247 296 233 266 253 285 288 308 301 318 313 306 324 348 14 176 191 221 217 251 303 289 307 329 298 296 292 288 288 301 77 150 129 119 115 115 96 36 6 349 335 328 312
245 249 268 289 235 264 269 278 271 285 302 313 267 273 273 187 150 210 199 220 274 277 298 291 295 289 275 295 297 303 260 151 166 168 143 128 104 45 20 5 346 337 324 322
230 246 246 249 257 238 242 280 336 345 24 222 268 285 275 213 260 243 219 248 294 260 291 295 290 297 276 294 294 295 252 198 175 171 175 155 86 31 16 2 350 342 338 345
251 269 227 224 238 235 240 241 193 198 204 272 302 257 275 247 184 176 182 202 261 246 300 300 279 288 275 290 285 278 242 206 182 183 171 134 79 19 10 7 356 358 359 7
228 251 239 246 254 238 234 241 257 250 276 283 299 286 158 142 162 176 182 238 262 273 310 327 311 306 289 298 279 269 234 219 210 188 173 188 184 42 13 8 5 11 10 16
238 265 256 336 214 222 238 237 261 247 122 282 10 200 164 180 180 197 245 214 215 226 290 314 301 313 303 313 293 275 247 225 222 205 187 192 196 39 7 10 11 19 20 17
230 245 243 334 187 193 213 237 246 265 255 169 183 202 169 183 189 218 193 204 211 251 248 267 288 302 299 298 297 270 231 235 206 203 191 192 184 226 1 14 18 23 23 33
232 237 250 264 210 225 277 265 247 244 255 254 267 216 196 206 223 229 241 217 263 262 261 252 262 287 281 296 321 303 250 229 177 185 185 194 195 213 12 9 23 33 26 41
224 230 238 237 252 266 242 344 262 251 235 263 246 247 225 222 220 217 267 264 286 247 238 245 243 278 285 298 344 4 281 172 155 166 180 187 177 141 18 21 26 41 31 25
222 222 224 228 224 294 291 310 340 311 299 286 290 270 231 234 245 252 271 271 276 242 235 245 245 275 273 277 275 3 98 134 160 160 171 167 158 96 36 14 11 31 26 25
177 170 170 188 216 238 264 274 303 318 289 274 315 282 281 253 216 196 179 171 190 248 246 249 245 261 269 262 261 3 187 161 150 147 158 167 150 111 36 13 10 5 3 23
200 161 202 202 218 253 265 260 289 298 308 305 328 321 203 164 165 226 221 231 245 226 232 253 253 264 260 254 258 258 223 203 166 157 183 171 157 82 32 21 13 7 354 8
203 232 242 251 255 259 275 268 304 303 291 305 294 242 197 155 159 182 228 241 239 227 223 259 262 255 262 253 254 260 247 210 178 165 178 177 173 115 349 349 2 350 351 357
210 218 215 229 255 241 258 257 297 278 54 55 105 139 158 180 264 264 297 221 206 217 217 225 243 262 285 269 250 239 230 209 191 187 201 204 244 247 263 311 323 335 337 337
213 232 229 211 226 249 241 255 249 298 92 134 156 149 132 107 161 299 307 40 198 208 216 242 257 252 262 266 247 235 216 186 240 244 279 166 226 259 255 279 303 311 333 332
235 227 225 201 215 206 255 142 28 19 152 178 182 185 248 270 285 267 267 243 217 187 329 256 272 277 274 270 268 235 196 290 257 214 226 260 276 276 289 291 308 316 318 324
253 248 239 242 251 245 238 249 272 288 295 300 270 294 280 259 203 237 223 236 201 232 257 275 278 276 272 261 257 258 255 255 254 229 232 256 274 282 287 298 298 307 308 306
255 255 245 245 248 265 275 269 268 267 280 286 305 88 138 174 185 183 211 214 206 222 240 257 277 280 265 260 262 264 265 264 262 269 265 264 276 279 285 291 301 301 307 303
260 256 252 249 248 234 233 258 287 286 276 251 271 175 152 162 162 166 188 193 198 217 245 265 269 266 263 264 269 271 270 271 272 267 269 278 264 274 280 284 287 295 298 297
231 260 244 239 237 240 243 234 248 269 245 222 172 179 207 185 185 186 190 208 230 247 259 259 260 262 273 273 272 268 268 269 265 266 272 269 266 269 276 278 284 292 296 289
251 225 243 206 209 220 222 214 225 243 247 229 223 225 204 233 205 199 214 231 257 276 281 259 255 260 273 277 265 259 256 253 257 261 262 264 270 269 270 277 284 287 286 283
273 266 263 255 220 214 218 228 225 227 252 234 229 232 230 215 222 236 255 270 281 277 264 258 259 261 268 274 277 275 270 268 267 266 269 271 269 271 279 284 284 283 286 289
Height
3190 3191 3192 3194 3196 3196 3196 3195 3194 3192 3194 3195 3195 3193 3194 3195 3194 3193 3192 3192 3193 3194 3195 3194 3196 3195 3194 3190 3190 3189 3187 3185 3182 3175 3157 3165 3178 3184 3187 3187 3186 3186 3186 3185
3188 3188 3191 3193 3194 3195 3194 3194 3194 3192 3194 3195 3193 3192 3193 3193 3192 3191 3191 3192 3194 3194 3195 3194 3194 3192 3191 3191 3190 3188 3187 3186 3181 3175 3164 3173 3179 3185 3186 3186 3184 3183 3182 3180
3186 3187 3189 3190 3193 3193 3193 3193 3192 3192 3192 3193 3191 3190 3190 3189 3186 3188 3191 3193 3193 3192 3193 3194 3195 3193 3193 3192 3190 3188 3187 3186 3181 3179 3176 3180 3181 3186 3186 3184 3183 3180 3178 3177
3185 3185 3187 3189 3190 3191 3189 3192 3191 3190 3189 3190 3189 3189 3186 3181 3181 3187 3190 3191 3192 3192 3194 3194 3194 3194 3193 3191 3190 3189 3188 3188 3184 3180 3180 3181 3183 3183 3183 3182 3180 3178 3177 3175
3183 3183 3186 3187 3188 3188 3188 3190 3189 3188 3188 3187 3189 3189 3185 3182 3181 3187 3190 3191 3192 3192 3194 3194 3194 3195 3192 3192 3191 3188 3188 3188 3186 3185 3183 3183 3182 3183 3182 3180 3178 3176 3173 3172
3179 3181 3183 3183 3185 3187 3188 3188 3187 3188 3188 3188 3186 3188 3185 3184 3186 3186 3189 3192 3192 3193 3193 3193 3195 3195 3192 3191 3190 3188 3187 3186 3186 3186 3186 3184 3183 3182 3180 3178 3176 3175 3173 3170
3178 3177 3180 3182 3183 3185 3186 3187 3188 3190 3189 3189 3185 3186 3184 3184 3184 3185 3187 3192 3192 3192 3193 3193 3193 3193 3192 3190 3189 3187 3185 3185 3185 3185 3185 3185 3183 3180 3180 3179 3177 3174 3170 3168
3177 3177 3178 3178 3180 3184 3184 3186 3187 3192 3191 3186 3184 3183 3182 3182 3184 3185 3187 3189 3191 3191 3191 3191 3193 3194 3192 3191 3188 3186 3184 3183 3183 3182 3183 3182 3182 3182 3181 3179 3177 3173 3171 3168
3175 3173 3174 3176 3179 3182 3183 3183 3186 3185 3184 3185 3184 3183 3184 3183 3182 3184 3187 3191 3191 3190 3191 3191 3192 3193 3191 3190 3187 3184 3183 3183 3183 3183 3183 3184 3183 3183 3182 3180 3176 3173 3170 3168
3173 3173 3171 3171 3170 3179 3179 3183 3183 3183 3185 3185 3184 3182 3184 3184 3186 3186 3186 3187 3186 3187 3190 3188 3191 3191 3188 3188 3185 3183 3182 3181 3183 3184 3183 3183 3184 3183 3182 3179 3176 3172 3170 3168
3170 3174 3170 3171 3172 3175 3178 3178 3179 3181 3181 3182 3185 3183 3181 3184 3184 3184 3185 3184 3186 3188 3186 3182 3187 3188 3187 3184 3184 3183 3178 3174 3175 3182 3183 3182 3183 3183 3181 3178 3175 3172 3170 3167
3165 3169 3168 3172 3172 3173 3174 3175 3176 3178 3179 3177 3178 3179 3179 3182 3182 3182 3183 3182 3185 3184 3181 3183 3186 3185 3184 3183 3182 3178 3173 3167 3171 3177 3181 3182 3183 3182 3179 3178 3175 3172 3171 3168
3161 3164 3166 3168 3171 3173 3172 3173 3173 3174 3173 3173 3175 3176 3176 3179 3179 3180 3182 3180 3179 3178 3176 3177 3181 3184 3183 3183 3179 3174 3163 3163 3171 3173 3178 3179 3179 3178 3177 3176 3175 3172 3171 3169
3156 3159 3161 3165 3169 3170 3171 3169 3170 3171 3170 3170 3171 3169 3171 3175 3176 3177 3179 3181 3178 3174 3175 3177 3181 3183 3184 3181 3177 3175 3173 3166 3170 3173 3175 3176 3177 3176 3176 3176 3175 3172 3171 3170
3153 3154 3158 3161 3164 3166 3167 3167 3167 3168 3167 3167 3167 3165 3165 3169 3175 3179 3179 3177 3176 3175 3174 3176 3178 3182 3182 3181 3177 3178 3179 3176 3174 3174 3175 3176 3176 3177 3177 3177 3175 3173 3172 3169
3151 3152 3155 3158 3160 3162 3163 3165 3165 3166 3165 3165 3165 3166 3165 3169 3170 3172 3172 3170 3171 3171 3174 3177 3179 3181 3179 3179 3179 3177 3178 3176 3173 3173 3174 3175 3177 3177 3176 3175 3174 3172 3171 3168
3150 3151 3154 3156 3158 3159 3161 3164 3165 3164 3162 3163 3164 3166 3166 3168 3171 3171 3167 3167 3166 3167 3167 3170 3175 3175 3174 3176 3174 3173 3177 3175 3172 3172 3174 3174 3175 3174 3175 3174 3172 3171 3168 3166
3149 3151 3153 3154 3156 3158 3158 3162 3162 3161 3161 3162 3162 3164 3167 3171 3172 3171 3169 3165 3165 3166 3165 3164 3166 3170 3174 3173 3171 3172 3176 3176 3173 3172 3172 3172 3172 3173 3172 3172 3171 3169 3167 3164
3148 3150 3153 3154 3153 3154 3155 3161 3161 3159 3160 3161 3162 3162 3163 3163 3168 3169 3167 3162 3165 3164 3164 3164 3162 3166 3167 3168 3169 3167 3170 3170 3170 3172 3172 3161 3168 3170 3169 3169 3168 3166 3164 3162
3147 3149 3152 3152 3152 3152 3154 3157 3155 3156 3158 3159 3160 3158 3160 3160 3169 3166 3165 3162 3163 3164 3162 3161 3163 3164 3165 3166 3166 3165 3162 3164 3166 3166 3164 3165 3167 3167 3167 3166 3164 3162 3161 3159
3146 3147 3148 3148 3147 3147 3150 3153 3153 3156 3159 3156 3157 3158 3156 3155 3157 3158 3159 3157 3160 3160 3162 3161 3161 3163 3164 3163 3161 3161 3159 3156 3160 3165 3163 3162 3163 3164 3163 3162 3160 3158 3158 3155
3142 3143 3142 3144 3144 3143 3147 3147 3150 3149 3147 3150 3152 3153 3154 3154 3155 3155 3157 3159 3160 3160 3159 3159 3157 3157 3157 3158 3159 3158 3156 3155 3157 3159 3158 3158 3158 3159 3158 3158 3156 3154 3152 3150
3139 3137 3139 3141 3141 3139 3140 3143 3142 3144 3145 3146 3148 3151 3152 3153 3154 3156 3158 3160 3159 3159 3158 3158 3155 3154 3153 3151 3152 3152 3152 3152 3152 3153 3154 3155 3156 3156 3155 3154 3152 3150 3148 3146
3133 3133 3132 3134 3134 3135 3137 3140 3140 3140 3140 3141 3144 3146 3148 3151 3151 3154 3157 3159 3159 3158 3157 3156 3153 3150 3147 3147 3147 3147 3145 3146 3147 3148 3149 3151 3152 3151 3150 3149 3148 3146 3143 3142
3129 3129 3129 3129 3130 3133 3134 3137 3139 3140 3141 3140 3143 3145 3144 3150 3150 3151 3154 3154 3154 3154 3153 3151 3150 3147 3143 3142 3144 3144 3144 3144 3145 3145 3146 3146 3146 3146 3146 3145 3143 3141 3139 3139
3124 3124 3126 3127 3127 3128 3130 3133 3136 3137 3137 3138 3140 3144 3146 3148 3150 3150 3150 3149 3149 3147 3146 3146 3146 3143 3141 3140 3139 3139 3140 3140 3141 3140 3140 3140 3140 3140 3140 3138 3137 3136 3135 3135